Miscellaneous Local Product
Issued by NWS Hastings, NE

Home | Current Version | Previous Version | Text Only | Print | Product List | Glossary On
Versions: 1 2 3 4 5 6 7 8 9 10 11 12 13 14 15 16 17 18 19 20 21 22 23 24 25 26 27 28 29 30 31 32 33 34 35 36 37 38 39 40 41 42 43 44 45 46 47 48 49 50
000
AXUS43 KGID 312202
MISGRI

GID CWA HOURLY WEATHER ROUNDUP
NATIONAL WEATHER SERVICE HASTINGS NE
400 PM CST SAT JAN 31 2015

NOTE: "FAIR" INDICATES FEW OR NO CLOUDS BELOW 12,000 FEET WITH NO
SIGNIFICANT WEATHER AND/OR OBSTRUCTIONS TO VISIBILITY.

...SOUTH CENTRAL NEBRASKA...

CITY           SKY/WX    TMP DP  RH WIND       PRES   REMARKS
GRAND ISLAND   LGT SNOW  32  32 100 SE6       29.90F VSB 3/4 WCI  26
HASTINGS       LGT SNOW  32  30  92 SE6       29.88F VSB 3/4 WCI  26
KEARNEY        CLOUDY    32  30  93 E6        29.87F WCI  26
ORD            LGT SNOW  33  31  92 E6        29.88F FOG     WCI  28
YORK           LGT SNOW  32  32 100 SE7       29.93F WCI  26
AURORA         LGT SNOW  33  33 100 SE8       29.90F WCI  26
LEXINGTON      LGT SNOW  34  32  95 E6        29.85F WCI  28
HOLDREGE       CLOUDY    32  32  99 SE6       29.85S FOG     WCI  27
HEBRON         LGT SNOW  33  32  95 SE9       29.92F WCI  25

...NEBRASKA PANHANDLE...

CITY           SKY/WX    TMP DP  RH WIND       PRES   REMARKS
CHADRON        LGT SNOW  28  25  88 NE14      29.93R FOG     WCI  17
ALLIANCE       SNOW      30  28  92 NE8       29.85R VSB 1/4 WCI  22
SCOTTSBLUFF    LGT SNOW  32  30  92 N7        29.85S VSB 1   WCI  26
SIDNEY         LGT SNOW  32  30  92 N8        29.82S VSB 1   WCI  25

...WESTERN AND NORTH CENTRAL NEBRASKA...

CITY           SKY/WX    TMP DP  RH WIND       PRES   REMARKS
VALENTINE      FRZ RAIN  25  23  92 NE15      29.95S VSB 1   WCI  13
AINSWORTH      CLOUDY    25  25  98 NE13      29.94S FOG     WCI  14
ONEILL         LGT SNOW  29  29  97 NE14      29.95F WCI  19
BROKEN BOW     LGT SNOW  34  32  92 E6        29.86F VSB 3/4 WCI  29
IMPERIAL       LGT SNOW  34  32  92 NE7       29.81F FOG     WCI  28
NORTH PLATTE   LGT SNOW  34  32  92 E5        29.84S FOG     WCI  30
MCCOOK         FOG       36  34  92 NE9       29.82F VSB 1   WCI  29

...EASTERN NEBRASKA...

CITY           SKY/WX    TMP DP  RH WIND       PRES   REMARKS
NORFOLK        LGT SNOW  35  33  92 SE5       29.94F FOG     WCI  31
SO SIOUX CITY  LGT RAIN  36  34  92 SE7       30.00F FOG     WCI  30
TEKAMAH        LGT SNOW  33  32  96 E6        30.00F VSB 3/4 WCI  28
COLUMBUS       CLOUDY    34  28  80 SE6       29.95F WCI  29
ALBION         LGT SNOW  34  31  90 SE5       29.92F WCI  30
OMAHA EPPLEY   LGT SNOW  35  33  92 SE13      30.00F FOG     WCI  26
OFFUTT AFB     LGT SNOW  32  32 100 E8        29.99F FOG     WCI  25
MILLARD        FLURRIES  34  33  94 SE9       29.99F WCI  27
LINCOLN        LGT SNOW  33  32  96 SE5       29.97F VSB 3/4 WCI  29
NEBRASKA CITY  LGT SNOW  33  33 100 SE10      29.99F WCI  24
BEATRICE       LGT SNOW  33  32  97 SE9       29.95F VSB 1   WCI  25
FALLS CITY     LGT RAIN  35  35 100 SE10      30.01F FOG     WCI  27

...NORTHERN KANSAS...

CITY           SKY/WX    TMP DP  RH WIND       PRES   REMARKS
GOODLAND       CLOUDY    36  34  92 N12       29.79S WCI  28
HILL CITY      CLOUDY    40  37  89 S7        29.82F
NORTON         DRZL/FOG  36  34  93 E5        29.81  VSB 3/4 WCI  32
PHILLIPSBURG   LGT RAIN  36  36 100 E6        29.86S WCI  31
SMITH CENTER   LGT SNOW  30  30 100 SE7       29.87F WCI  23
BELOIT         CLOUDY    36  34  93 SE9       29.88F WCI  29
HAYS           CLOUDY    39  32  75 S13       29.84F WCI  32
RUSSELL        LGT RAIN  39  38  96 S13       29.84F WCI  31
CONCORDIA      LGT SNOW  33  33 100 SE14      29.90F FOG     WCI  23
SALINA         RAIN      41  38  89 S13       29.90F FOG
TOPEKA         LGT RAIN  35  34  96 E8        30.01F FOG     WCI  29



USA.gov is the U.S. government's official web portal to all federal, state and local government web resources and services.